This demonstration page uses our WeatherBlox Daily Observations layout. Learn more.

Left ArrowRight Arrow

Hourly Observations for October 18, 2018

Temp ( °F °C ) Dew Point ( °F °C ) Humidity (%) Winds ( mph kmh ) Pressure ( in mb ) Visibility ( mi km ) Precip ( " mm )
12:51 am 00:51 Cloudy 56 13.3 47 8.3 72 72 ESE 9 15 30.14 1021 10 16 0.00 0.00
1:51 am 01:51 Cloudy 55 12.8 47 8.3 74 74 E 9 15 30.14 1021 10 16 0.00 0.00
2:51 am 02:51 Cloudy 56 13.3 47 8.3 72 72 SE 10 17 30.13 1020 10 16 0.00 0.00
3:51 am 03:51 Cloudy 55 12.8 47 8.3 74 74 ESE 8 13 30.13 1020 10 16 0.00 0.00
4:51 am 04:51 Cloudy 55 12.8 47 8.3 74 74 ESE 9 15 30.13 1020 10 16 0.00 0.00
5:51 am 05:51 Cloudy 54 12.2 48 8.9 80 80 ESE 6 9 30.14 1021 10 16 0.00 0.00
6:51 am 06:51 Cloudy 54 12.2 48 8.9 80 80 SE 7 11 30.15 1021 10 16 0.00 0.00
7:51 am 07:51 Cloudy 55 12.8 48 8.9 77 77 SE 8 13 30.16 1021 10 16 0.00 0.00
8:51 am 08:51 Cloudy 55 12.8 48 8.9 77 77 SSE 12 19 30.17 1022 10 16 0.00 0.00
9:51 am 09:51 Cloudy 57 13.9 48 8.9 72 72 SSE 12 19 30.16 1021 10 16 0.00 0.00
10:51 am 10:51 Cloudy 58 14.4 48 8.9 70 70 SSE 12 19 30.16 1021 10 16 0.00 0.00
11:51 am 11:51 Cloudy 59 15 48 8.9 67 67 S 15 24 30.13 1020 10 16 0.00 0.00
12:51 pm 12:51 Cloudy 60 15.6 49 9.4 67 67 S 15 24 30.10 1019 10 16 0.00 0.00
1:51 pm 13:51 Cloudy 61 16.1 49 9.4 65 65 S 14 22 30.08 1019 10 16 0.00 0.00
2:51 pm 14:51 Cloudy 62 16.7 49 9.4 62 62 S 12 19 30.06 1018 10 16 0.00 0.00
3:51 pm 15:51 Cloudy 62 16.7 50 10 65 65 S 14 22 30.05 1018 10 16 0.00 0.00
4:51 pm 16:51 Mostly Cloudy 61 16.1 49 9.4 65 65 S 15 24 30.06 1018 10 16 0.00 0.00
5:51 pm 17:51 Cloudy 59 15 49 9.4 69 69 S 13 20 30.07 1018 10 16 0.00 0.00
6:51 pm 18:51 Cloudy 56 13.3 50 10 81 81 SSE 6 9 30.10 1019 10 16 0.00 0.00
7:51 pm 19:51 Clear 54 12.2 50 10 87 87 SSE 7 11 30.11 1020 10 16 0.00 0.00
8:51 pm 20:51 Clear 53 11.7 50 10 89 89 SE 6 9 30.13 1020 10 16 0.00 0.00
9:51 pm 21:51 Cloudy 55 12.8 50 10 83 83 SE 6 9 30.12 1020 10 16 0.00 0.00
10:51 pm 22:51 Cloudy 55 12.8 50 10 83 83 SE 7 11 30.12 1020 10 16 0.00 0.00
11:51 pm 23:51 Cloudy 55 12.8 50 10 83 83 SE 6 9 30.11 1020 10 16 0.00 0.00

Powered by AerisWeather